Location: Newark
(48.6461°N, 4.3644°W)
Time: 15:31:46
(UTC+00:00)

Vanguard 1 Rocket - All Passes

Search period start: 26 January 2020 00:00
Search period end: 05 February 2020 00:00
Orbit: 650 x 4226 km, 34.3° (Epoch: 25 January)

Date Brightness Start Highest point End Pass type
(mag) Time Alt. Az. Time Alt. Az. Time Alt. Az.
26 Jan - 08:44:24 10° S 08:49:36 19° SE 08:57:09 10° E daylight
26 Jan - 11:05:15 10° SW 11:13:55 41° SSE 11:29:39 10° ESE daylight
26 Jan - 13:29:01 10° WSW 13:40:50 42° S 14:00:55 10° SE daylight
26 Jan - 15:55:37 10° W 16:09:06 27° SSW 16:27:29 10° SSE daylight
27 Jan - 09:55:34 10° SW 10:02:36 32° SSE 10:14:41 10° E daylight
27 Jan - 12:18:20 10° WSW 12:28:21 43° S 12:46:23 10° ESE daylight
27 Jan - 14:43:24 10° W 14:56:04 33° SSW 15:15:25 10° SSE daylight
27 Jan - 17:14:35 10° WSW 17:24:04 15° SW 17:35:07 10° SSW visible
28 Jan - 08:46:34 10° SSW 08:51:53 22° SE 08:59:53 10° ESE daylight
28 Jan - 11:08:05 10° WSW 11:16:25 40° S 11:31:35 10° ESE daylight
28 Jan - 13:32:04 10° WSW 13:43:16 38° SSW 14:02:02 10° SE daylight
28 Jan - 15:59:29 10° WSW 16:11:15 22° SW 16:26:50 10° S daylight
29 Jan - 07:39:28 10° SSE 07:41:37 11° SE 07:44:06 10° ESE daylight
29 Jan - 09:58:16 10° SW 10:05:05 34° SSE 10:16:54 10° ESE daylight
29 Jan - 12:21:19 10° WSW 12:30:53 40° S 12:47:53 10° SE daylight
29 Jan - 14:46:48 10° WSW 14:58:24 28° SSW 15:15:38 10° SSE daylight
30 Jan - 08:48:59 10° SSW 08:54:17 24° SSE 09:02:28 10° ESE daylight
30 Jan - 11:11:00 10° WSW 11:19:00 39° S 11:33:25 10° ESE daylight
30 Jan - 13:35:15 10° WSW 13:45:45 33° SSW 14:02:53 10° SE daylight
30 Jan - 16:04:12 10° WSW 16:13:27 16° SW 16:25:03 10° S daylight
31 Jan - 07:40:49 10° S 07:43:56 14° SE 07:47:50 10° ESE daylight
31 Jan - 10:01:04 10° SW 10:07:40 34° SSE 10:19:02 10° ESE daylight
31 Jan - 12:24:24 10° WSW 12:33:28 36° S 12:49:13 10° SE daylight
31 Jan - 14:50:35 10° WSW 15:00:47 22° SSW 15:15:16 10° SSE daylight
01 Feb - 08:51:35 10° SSW 08:56:48 26° SSE 09:04:57 10° ESE daylight
01 Feb - 11:14:01 10° WSW 11:21:38 36° S 11:35:09 10° ESE daylight
01 Feb - 13:38:39 10° WSW 13:48:16 27° SSW 14:03:21 10° SSE daylight
01 Feb - 16:11:38 10° SW 16:15:45 11° SW 16:20:15 10° SSW daylight
02 Feb - 07:42:50 10° S 07:46:21 16° SSE 07:50:58 10° ESE daylight
02 Feb - 10:03:59 10° SW 10:10:18 33° S 10:21:07 10° ESE daylight
02 Feb - 12:27:37 10° WSW 12:36:06 31° SSW 12:50:17 10° SE daylight
02 Feb - 14:55:03 10° WSW 15:03:13 17° SSW 15:13:59 10° S daylight
03 Feb - 08:54:19 10° SW 08:59:24 27° SSE 09:07:21 10° ESE daylight
03 Feb - 11:17:07 10° WSW 11:24:20 32° S 11:36:44 10° SE daylight
03 Feb - 13:42:24 10° WSW 13:50:51 22° SSW 14:03:18 10° SSE daylight
04 Feb - 07:45:11 10° SSW 07:48:53 18° SSE 07:53:50 10° ESE daylight
04 Feb - 10:07:00 10° WSW 10:13:01 31° S 10:23:05 10° ESE daylight
04 Feb - 12:31:02 10° WSW 12:38:46 26° SSW 12:51:04 10° SSE daylight
04 Feb - 15:01:40 10° SW 15:05:43 11° SW 15:10:20 10° SSW daylight
